This demonstration page uses our WeatherBlox Daily Observations layout. Learn more.

Left ArrowRight Arrow

39.29038, -76.61219

Hourly Observations for July 17, 2021

Temp ( °F °C ) Dew Point ( °F °C ) Humidity (%) Winds ( mph kmh ) Pressure ( in mb ) Visibility ( mi km ) Precip ( " mm )
12:54 am 00:54 Mostly Clear 80 26.7 71 21.7 74 74 N N/A 30.01 1016 10 16 N/A
1:54 am 01:54 Mostly Clear 79 26.1 72 22.2 79 79 NW 5 7 30.01 1016 10 16 N/A
2:54 am 02:54 Mostly Clear 79 26.1 72 22.2 79 79 N N/A 30.01 1016 10 16 N/A
3:54 am 03:54 Clear 79 26.1 73 22.8 82 82 S 3 6 30.01 1016 10 16 N/A
4:54 am 04:54 Mostly Clear 76 24.4 72 22.2 88 88 N N/A 30.01 1016 10 16 N/A
5:54 am 05:54 Mostly Clear 77 25 72 22.2 85 85 N N/A 30.02 1017 10 16 N/A
6:09 am 06:09 Partly Cloudy with Fog 77 25 72 22.2 85 85 N N/A 30.02 1017 8 13 N/A
6:23 am 06:23 Partly Cloudy with Fog 77 25 72 22.2 85 85 N N/A 30.01 1016 8 13 N/A
6:30 am 06:30 Partly Cloudy with Fog 77 25 73 22.8 88 88 N N/A 30.02 1017 8 13 N/A
6:54 am 06:54 Partly Cloudy with Fog 78 25.6 73 22.8 85 85 N N/A 30.03 1017 8 13 N/A
7:02 am 07:02 Partly Cloudy with Fog 79 26.1 73 22.8 82 82 S 3 6 30.02 1017 10 16 N/A
7:54 am 07:54 Mostly Sunny 81 27.2 73 22.8 77 77 N N/A 30.03 1017 8 13 N/A
8:54 am 08:54 Partly Cloudy 85 29.4 73 22.8 68 68 VRB 3 6 30.04 1017 8 13 N/A
9:54 am 09:54 Partly Cloudy 87 30.6 72 22.2 61 61 SSW 6 9 30.04 1017 9 14 N/A
10:54 am 10:54 Partly Cloudy 90 32.2 74 23.3 59 59 SSW 6 9 30.04 1017 9 14 N/A
11:54 am 11:54 Partly Cloudy 93 33.9 73 22.8 52 52 S 8 13 30.02 1017 10 16 N/A
12:44 pm 12:44 Partly Cloudy 96 35.6 73 22.8 47 47 SW 9 15 30.00 1016 10 16 N/A
12:54 pm 12:54 Partly Cloudy 95 35 71 21.7 46 46 S 12 19 30.00 1016 10 16 N/A
1:54 pm 13:54 Mostly Cloudy 96 35.6 71 21.7 44 44 SSE 10 17 29.97 1015 10 16 N/A
2:06 pm 14:06 Mostly Cloudy with Thunderstorms 97 36.1 72 22.2 45 45 VRB 6 9 29.95 1014 9 14 N/A
2:32 pm 14:32 Mostly Cloudy 95 35 77 25 56 56 SSE 8 13 29.94 1014 9 14 N/A
2:54 pm 14:54 Mostly Cloudy 94 34.4 75 23.9 54 54 SSW 8 13 29.93 1014 9 14 N/A
3:42 pm 15:42 Mostly Cloudy with Thunderstorms 83 28.3 68 20 61 61 N 10 17 29.96 1015 8 13 N/A
3:54 pm 15:54 Mostly Cloudy with Thunderstorms 81 27.2 71 21.7 72 72 NE 9 15 29.96 1015 7 11 0.00 0.00
4:19 pm 16:19 Mostly Cloudy with Thunderstorms 82 27.8 72 22.2 72 72 NE 15 24 29.96 1015 7 11 0.00 0.00
4:29 pm 16:29 Mostly Cloudy 78 25.6 72 22.2 82 82 ENE 15 24 29.96 1015 7 11 0.00 0.00
4:38 pm 16:38 Mostly Cloudy with Light Rain 77 25 72 22.2 85 85 E 12 19 29.95 1014 7 11 0.00 0.00
4:42 pm 16:42 Mostly Cloudy with Thunderstorms 77 25 72 22.2 85 85 ESE 9 15 29.95 1014 7 11 0.00 0.00
4:54 pm 16:54 Mostly Cloudy with Thunderstorms 78 25.6 72 22.2 82 82 SE 8 13 29.97 1015 7 11 0.00 0.00
5:00 pm 17:00 Cloudy with Strong Thunderstorms 77 25 73 22.8 88 88 W 9 15 29.96 1015 1 2 0.07 1.78
5:08 pm 17:08 Cloudy with Strong Thunderstorms 77 25 72 22.2 85 85 NW 6 9 29.98 1015 3 5 0.13 3.30
5:14 pm 17:14 Mostly Cloudy with Thunderstorms 77 25 73 22.8 88 88 N N/A 29.98 1015 6 10 0.13 3.30
5:33 pm 17:33 Mostly Cloudy with Light Rain 77 25 74 23.3 90 90 ENE 6 9 29.97 1015 8 13 0.14 3.56
5:54 pm 17:54 Mostly Cloudy with Light Rain 76 24.4 72 22.2 88 88 E 9 15 29.97 1015 8 13 0.14 3.56
6:54 pm 18:54 Cloudy 79 26.1 72 22.2 79 79 N N/A 29.95 1014 10 16 0.00 0.00
7:54 pm 19:54 Cloudy 78 25.6 73 22.8 85 85 SW 5 7 29.94 1014 10 16 N/A
8:27 pm 20:27 Cloudy 78 25.6 73 22.8 85 85 WNW 14 22 29.97 1015 10 16 N/A
8:54 pm 20:54 Mostly Cloudy 76 24.4 70 21.1 82 82 NW 9 15 29.99 1016 10 16 N/A
9:54 pm 21:54 Mostly Cloudy 76 24.4 70 21.1 82 82 N N/A 29.97 1015 10 16 N/A
10:54 pm 22:54 Mostly Cloudy 74 23.3 70 21.1 88 88 SW 3 6 29.96 1015 10 16 N/A
11:54 pm 23:54 Clear 75 23.9 70 21.1 84 84 SSE 5 7 29.98 1015 10 16 N/A

Powered by AerisWeather